FW4741 Weather Reports


time (UTC)temp
C
wind
direction
speed
KPH
gust
KPH
rain 1hr
cm
rain 24hr
cm
rain mn
cm
humidity
%
barometer
mb
20260902060603 18 77 3.2 9.7 0.00 0.00 0.00 77 1025.3
20260902055603 18 77 3.2 9.7 0.00 0.00 0.00 78 1025.3
20260902055102 18 77 3.2 9.7 0.00 0.00 0.00 78 1025.3
20260902054603 18 77 3.2 9.7 0.00 0.00 0.00 78 1025.3
20260902054103 18 77 3.2 9.7 0.00 0.00 0.00 78 1025.3
20260902053103 18 77 3.2 9.7 0.00 0.00 0.00 81 1025.3
20260902052602 18 77 3.2 9.7 0.00 0.00 0.00 81 1025.4
20260902052103 18 77 3.2 9.7 0.00 0.00 0.00 82 1025.4
20260902051603 18 77 3.2 9.7 0.00 0.00 0.00 82 1025.4
20260902051103 18 77 3.2 9.7 0.00 0.00 0.00 82 1025.4
20260902045603 18 77 3.2 9.7 0.00 0.00 0.00 82 1025.4
20260902044603 18 77 3.2 9.7 0.00 0.00 0.00 83 1025.4
20260902044103 18 77 3.2 9.7 0.00 0.00 0.00 83 1025.4
20260902043603 18 77 3.2 9.7 0.00 0.00 0.00 82 1025.4
20260902043104 18 77 3.2 9.7 0.00 0.00 0.00 82 1025.4
20260902042602 18 77 3.2 9.7 0.00 0.00 0.00 82 1025.3
20260902042102 18 77 3.2 9.7 0.00 0.00 0.00 82 1025.3
20260902041603 18 77 3.2 9.7 0.00 0.00 0.00 83 1025.3
20260902041103 18 77 3.2 9.7 0.00 0.00 0.00 83 1025.3
20260902035603 18 77 3.2 9.7 0.00 0.00 0.00 83 1025.2
20260902035103 18 77 3.2 9.7 0.00 0.00 0.00 83 1025.2
20260902034603 18 77 3.2 9.7 0.00 0.00 0.00 84 1025.2
20260902034102 18 77 3.2 9.7 0.00 0.00 0.00 83 1025.1
20260902033603 18 77 3.2 9.7 0.00 0.00 0.00 83 1025.1
20260902033103 18 77 3.2 9.7 0.00 0.00 0.00 84 1025.1
20260902032602 18 77 3.2 9.7 0.00 0.00 0.00 84 1025.1
20260902032103 18 77 3.2 9.7 0.00 0.00 0.00 83 1025.0
20260902031603 18 77 3.2 9.7 0.00 0.00 0.00 82 1024.9
20260902031103 18 77 3.2 9.7 0.00 0.00 0.00 82 1024.9
20260902030603 18 77 3.2 9.7 0.00 0.00 0.00 82 1024.9
20260902030103 18 77 3.2 9.7 0.00 0.00 0.00 82 1024.8
20260902025604 18 77 3.2 9.7 0.00 0.00 0.00 81 1024.7
20260902025103 18 77 3.2 9.7 0.00 0.00 0.00 81 1024.6
20260902024602 18 77 3.2 9.7 0.00 0.00 0.00 81 1024.6
20260902024103 18 77 3.2 9.7 0.00 0.00 0.00 81 1024.5
20260902023602 18 77 3.2 9.7 0.00 0.00 0.00 81 1024.5
20260902023102 18 77 3.2 9.7 0.00 0.00 0.00 80 1024.4
20260902022603 18 77 3.2 9.7 0.00 0.00 0.00 80 1024.3
20260902022103 18 77 3.2 9.7 0.00 0.00 0.00 80 1024.3
20260902021603 18 77 3.2 9.7 0.00 0.00 0.00 80 1024.3
20260902020603 18 77 3.2 9.7 0.00 0.00 0.00 80 1024.2
20260902015103 19 77 3.2 9.7 0.00 0.00 0.00 79 1024.0
20260902013603 19 77 3.2 9.7 0.00 0.00 0.00 79 1023.9
20260902012102 20 77 3.2 9.7 0.00 0.00 0.00 76 1023.7
20260902011603 20 77 3.2 9.7 0.00 0.00 0.00 76 1023.7
20260902011103 20 77 3.2 9.7 0.00 0.00 0.00 76 1023.7
20260902010602 20 77 3.2 9.7 0.00 0.00 0.00 76 1023.7
20260902005602 20 77 3.2 9.7 0.00 0.00 0.00 76 1023.6
20260902005103 20 77 3.2 9.7 0.00 0.00 0.00 76 1023.5
20260902004603 20 77 3.2 9.7 0.00 0.00 0.00 75 1023.5
20260902004103 20 77 3.2 9.7 0.00 0.00 0.00 75 1023.4
20260902003603 20 77 3.2 9.7 0.00 0.00 0.00 75 1023.4
20260902003103 20 77 3.2 9.7 0.00 0.00 0.00 75 1023.4
20260902001603 20 77 3.2 9.7 0.00 0.00 0.00 76 1023.4
20260902001102 20 77 3.2 9.7 0.00 0.00 0.00 77 1023.3
20260902000602 20 77 3.2 9.7 0.00 0.00 0.00 77 1023.3
20260901235602 20 77 3.2 9.7 0.00 0.00 0.00 75 1023.2
20260901234602 20 77 3.2 9.7 0.00 0.00 0.00 73 1023.2
20260901234102 20 77 3.2 9.7 0.00 0.00 0.00 72 1023.2
20260901233603 20 77 3.2 9.7 0.00 0.00 0.00 72 1023.2
20260901233103 20 77 3.2 9.7 0.00 0.00 0.00 71 1023.2
20260901232603 21 77 3.2 9.7 0.00 0.00 0.00 71 1023.2
20260901232103 21 77 3.2 9.7 0.00 0.00 0.00 72 1023.1
20260901231604 21 77 3.2 9.7 0.00 0.00 0.00 72 1023.1
20260901231102 21 77 3.2 9.7 0.00 0.00 0.00 72 1023.1
20260901230602 21 77 3.2 9.7 0.00 0.00 0.00 72 1023.1
20260901225603 21 77 3.2 9.7 0.00 0.00 0.00 73 1023.1
20260901225102 21 77 3.2 9.7 0.00 0.00 0.00 73 1023.0
20260901224603 21 77 3.2 9.7 0.00 0.00 0.00 72 1023.0
20260901223602 22 77 3.2 9.7 0.00 0.00 0.00 71 1022.8
20260901223103 22 77 3.2 9.7 0.00 0.00 0.00 69 1022.8
20260901222602 22 77 3.2 9.7 0.00 0.00 0.00 69 1022.8
20260901222103 22 77 3.2 9.7 0.00 0.00 0.00 69 1022.8
20260901221603 23 77 3.2 9.7 0.00 0.00 0.00 69 1022.8
20260901221103 23 77 3.2 9.7 0.00 0.00 0.00 66 1022.9
20260901220603 23 77 3.2 9.7 0.00 0.00 0.00 66 1022.8
20260901215603 22 77 3.2 9.7 0.00 0.00 0.00 71 1022.9
20260901215103 23 77 3.2 9.7 0.00 0.00 0.00 70 1023.0
20260901214603 23 77 3.2 9.7 0.00 0.00 0.00 68 1023.0
20260901214102 24 77 3.2 9.7 0.00 0.00 0.00 61 1023.1
20260901213602 24 77 3.2 9.7 0.00 0.00 0.00 60 1023.0
20260901212603 24 77 3.2 9.7 0.00 0.00 0.00 59 1023.1
20260901212102 23 77 3.2 9.7 0.00 0.00 0.00 60 1023.1
20260901211603 23 77 3.2 9.7 0.00 0.00 0.00 62 1023.1
20260901211103 23 77 3.2 9.7 0.00 0.00 0.00 63 1023.2
20260901210602 23 77 3.2 9.7 0.00 0.00 0.00 64 1023.2
20260901205103 22 77 3.2 9.7 0.00 0.00 0.00 67 1023.2
20260901204602 22 77 3.2 9.7 0.00 0.00 0.00 67 1023.2
20260901204103 23 77 3.2 9.7 0.00 0.00 0.00 67 1023.3
20260901203102 23 77 3.2 9.7 0.00 0.00 0.00 68 1023.4
20260901202102 23 77 3.2 9.7 0.00 0.00 0.00 66 1023.4
20260901201602 23 77 3.2 9.7 0.00 0.00 0.00 66 1023.4
20260901200603 23 77 3.2 9.7 0.00 0.00 0.00 65 1023.5
20260901195603 23 77 3.2 9.7 0.00 0.00 0.00 65 1023.6
20260901195103 23 77 3.2 9.7 0.00 0.00 0.00 64 1023.6
20260901194603 23 77 3.2 9.7 0.00 0.00 0.00 66 1023.7
20260901194103 23 77 3.2 9.7 0.00 0.00 0.00 66 1023.7
20260901193102 23 77 3.2 9.7 0.00 0.00 0.00 64 1023.8
20260901192602 23 77 3.2 9.7 0.00 0.00 0.00 65 1023.8
20260901192103 23 77 3.2 9.7 0.00 0.00 0.00 63 1024.0
20260901191103 23 77 3.2 9.7 0.00 0.00 0.00 65 1024.0
20260901190103 23 77 3.2 9.7 0.00 0.00 0.00 65 1024.1
20260901185606 23 77 3.2 9.7 0.00 0.00 0.00 65 1024.1
20260901185103 23 77 3.2 9.7 0.00 0.00 0.00 65 1024.1
20260901184102 23 77 3.2 9.7 0.00 0.00 0.00 65 1024.2
20260901183603 23 77 3.2 9.7 0.00 0.00 0.00 65 1024.2
20260901183102 23 77 3.2 9.7 0.00 0.00 0.00 63 1024.2
20260901182103 23 77 3.2 9.7 0.00 0.00 0.00 62 1024.2
20260901181602 23 77 3.2 9.7 0.00 0.00 0.00 63 1024.3
20260901181103 23 77 3.2 9.7 0.00 0.00 0.00 61 1024.3
20260901180603 23 77 3.2 9.7 0.00 0.00 0.00 60 1024.2
20260901175602 23 77 3.2 9.7 0.00 0.00 0.00 61 1024.3
20260901175102 23 77 3.2 9.7 0.00 0.00 0.00 60 1024.3
20260901174602 23 77 3.2 9.7 0.00 0.00 0.00 60 1024.3
20260901174103 23 77 3.2 9.7 0.00 0.00 0.00 60 1024.3
20260901173602 23 77 3.2 9.7 0.00 0.00 0.00 61 1024.3
20260901173103 23 77 3.2 9.7 0.00 0.00 0.00 58 1024.3
20260901172603 23 77 3.2 9.7 0.00 0.00 0.00 59 1024.3
20260901172103 23 77 3.2 9.7 0.00 0.00 0.00 62 1024.3
20260901171603 23 77 3.2 9.7 0.00 0.00 0.00 61 1024.4
20260901171102 23 77 3.2 9.7 0.00 0.00 0.00 60 1024.4
20260901165102 23 77 3.2 9.7 0.00 0.00 0.00 61 1024.4
20260901164103 23 77 3.2 9.7 0.00 0.00 0.00 61 1024.4
20260901163103 22 77 3.2 9.7 0.00 0.00 0.00 62 1024.4
20260901162603 22 77 3.2 9.7 0.00 0.00 0.00 62 1024.4
20260901162103 22 77 3.2 9.7 0.00 0.00 0.00 63 1024.4
20260901161603 22 77 3.2 9.7 0.00 0.00 0.00 66 1024.4
20260901160603 22 77 3.2 9.7 0.00 0.00 0.00 62 1024.4
20260901155103 21 77 3.2 9.7 0.00 0.00 0.00 68 1024.4
20260901154602 21 77 3.2 9.7 0.00 0.00 0.00 67 1024.4
20260901154103 21 77 3.2 9.7 0.00 0.00 0.00 67 1024.5
20260901153602 20 77 3.2 9.7 0.00 0.00 0.00 68 1024.5
20260901153103 20 77 3.2 9.7 0.00 0.00 0.00 69 1024.5
20260901152602 20 77 3.2 9.7 0.00 0.00 0.00 70 1024.6
20260901152102 20 77 3.2 9.7 0.00 0.00 0.00 70 1024.6
20260901151602 19 77 3.2 9.7 0.00 0.00 0.00 71 1024.6
20260901151103 19 77 3.2 9.7 0.00 0.00 0.00 72 1024.6
20260901150602 19 77 3.2 9.7 0.00 0.00 0.00 71 1024.5
20260901145603 18 77 3.2 9.7 0.00 0.00 0.00 74 1024.5
20260901145102 18 77 3.2 9.7 0.00 0.00 0.00 74 1024.5
20260901144603 18 77 3.2 9.7 0.00 0.00 0.00 76 1024.5
20260901144102 18 77 3.2 9.7 0.00 0.00 0.00 76 1024.5
20260901143603 17 77 3.2 9.7 0.00 0.00 0.00 77 1024.5
20260901143103 17 77 3.2 9.7 0.00 0.00 0.00 77 1024.4
20260901142603 17 77 3.2 9.7 0.00 0.00 0.00 77 1024.4
20260901142103 17 77 3.2 9.7 0.00 0.00 0.00 78 1024.4
20260901141602 17 77 3.2 9.7 0.00 0.00 0.00 79 1024.4
20260901141103 16 77 3.2 9.7 0.00 0.00 0.00 79 1024.4
20260901134603 16 77 3.2 9.7 0.00 0.00 0.00 83 1024.4
20260901133602 15 77 3.2 9.7 0.00 0.00 0.00 84 1024.4
20260901133102 15 77 3.2 9.7 0.00 0.00 0.00 84 1024.4
20260901132103 15 77 3.2 9.7 0.00 0.00 0.00 84 1024.4
20260901131603 15 77 3.2 9.7 0.00 0.00 0.00 84 1024.4
20260901131103 15 77 3.2 9.7 0.00 0.00 0.00 84 1024.3
20260901130603 15 77 3.2 9.7 0.00 0.00 0.00 84 1024.3
20260901125603 15 77 3.2 9.7 0.00 0.00 0.00 84 1024.3
20260901125102 15 77 3.2 9.7 0.00 0.00 0.00 84 1024.4
20260901124602 15 77 3.2 9.7 0.00 0.00 0.00 84 1024.4
20260901124102 15 77 3.2 9.7 0.00 0.00 0.00 84 1024.4
20260901123603 15 77 3.2 9.7 0.00 0.00 0.00 84 1024.4
20260901123103 15 77 3.2 9.7 0.00 0.00 0.00 83 1024.4
20260901122603 15 77 3.2 9.7 0.00 0.00 0.00 84 1024.4
20260901122103 15 77 3.2 9.7 0.00 0.00 0.00 84 1024.4
20260901121603 15 77 3.2 9.7 0.00 0.00 0.00 85 1024.4
20260901121103 15 77 3.2 9.7 0.00 0.00 0.00 85 1024.4
20260901120603 15 77 3.2 9.7 0.00 0.00 0.00 85 1024.4
20260901115602 14 77 3.2 9.7 0.00 0.00 0.00 87 1024.3
20260901115103 14 77 3.2 9.7 0.00 0.00 0.00 88 1024.3
20260901114602 14 77 3.2 9.7 0.00 0.00 0.00 88 1024.2
20260901114103 14 77 3.2 9.7 0.00 0.00 0.00 88 1024.2
20260901113602 14 77 3.2 9.7 0.00 0.00 0.00 88 1024.2
20260901113103 14 77 3.2 9.7 0.00 0.00 0.00 88 1024.2
20260901112603 14 77 3.2 9.7 0.00 0.00 0.00 88 1024.2
20260901112103 14 77 3.2 9.7 0.00 0.00 0.00 88 1024.2
20260901111603 15 77 3.2 9.7 0.00 0.00 0.00 87 1024.2
20260901111103 15 77 3.2 9.7 0.00 0.00 0.00 87 1024.3
20260901105603 15 77 3.2 9.7 0.00 0.00 0.00 86 1024.3
20260901105104 15 77 3.2 9.7 0.00 0.00 0.00 86 1024.3
20260901104103 15 77 3.2 9.7 0.00 0.00 0.00 86 1024.3
20260901103102 15 77 3.2 9.7 0.00 0.00 0.00 86 1024.3
20260901102603 15 77 3.2 9.7 0.00 0.00 0.00 86 1024.3
20260901101602 15 77 3.2 9.7 0.00 0.00 0.00 87 1024.3
20260901101103 15 77 3.2 9.7 0.00 0.00 0.00 86 1024.3
20260901100603 15 77 3.2 9.7 0.00 0.00 0.00 86 1024.3
20260901095602 15 77 3.2 9.7 0.00 0.00 0.00 85 1024.4
20260901095102 15 77 3.2 9.7 0.00 0.00 0.00 85 1024.5
20260901094603 15 77 3.2 9.7 0.00 0.00 0.00 85 1024.4
20260901094103 15 77 3.2 9.7 0.00 0.00 0.00 85 1024.4
20260901093602 15 77 3.2 9.7 0.00 0.00 0.00 85 1024.4
20260901093103 15 77 3.2 9.7 0.00 0.00 0.00 86 1024.4
20260901092603 16 77 3.2 9.7 0.00 0.00 0.00 85 1024.4
20260901092103 16 77 3.2 9.7 0.00 0.00 0.00 84 1024.4
20260901091603 16 77 3.2 9.7 0.00 0.00 0.00 83 1024.4
20260901091103 16 77 3.2 9.7 0.00 0.00 0.00 83 1024.5
20260901090603 16 77 3.2 9.7 0.00 0.00 0.00 83 1024.4
20260901085603 15 77 3.2 9.7 0.00 0.00 0.00 85 1024.5
20260901085103 15 77 3.2 9.7 0.00 0.00 0.00 86 1024.5
20260901084103 15 77 3.2 9.7 0.00 0.00 0.00 84 1024.6
20260901083103 15 77 3.2 9.7 0.00 0.00 0.00 84 1024.5
20260901082602 15 77 3.2 9.7 0.00 0.00 0.00 84 1024.6
20260901081603 15 77 3.2 9.7 0.00 0.00 0.00 84 1024.7
20260901081102 15 77 3.2 9.7 0.00 0.00 0.00 84 1024.8
20260901080103 15 77 3.2 9.7 0.00 0.00 0.00 83 1024.8
20260901075602 15 77 3.2 9.7 0.00 0.00 0.00 84 1024.8
20260901075103 15 77 3.2 9.7 0.00 0.00 0.00 84 1024.8
20260901074102 15 77 3.2 9.7 0.00 0.00 0.00 85 1024.8
20260901073103 15 77 3.2 9.7 0.00 0.00 0.00 85 1024.9
20260901072603 15 77 3.2 9.7 0.00 0.00 0.00 85 1024.8
20260901072103 15 77 3.2 9.7 0.00 0.00 0.00 86 1024.8
20260901071603 15 77 3.2 9.7 0.00 0.00 0.00 86 1024.8
20260901071103 15 77 3.2 9.7 0.00 0.00 0.00 85 1024.8
20260901070603 15 77 3.2 9.7 0.00 0.00 0.00 85 1024.7
20260901070103 15 77 3.2 9.7 0.00 0.00 0.00 85 1024.7
20260901065602 16 77 3.2 9.7 0.00 0.00 0.00 85 1024.7
20260901065103 16 77 3.2 9.7 0.00 0.00 0.00 84 1024.7
20260901064603 16 77 3.2 9.7 0.00 0.00 0.00 84 1024.7
20260901063602 16 77 3.2 9.7 0.00 0.00 0.00 83 1024.7
20260901063103 16 77 3.2 9.7 0.00 0.00 0.00 83 1024.7
20260901062602 16 77 3.2 9.7 0.00 0.00 0.00 83 1024.7
20260901062103 16 77 3.2 9.7 0.00 0.00 0.00 83 1024.8
20260901061603 16 77 3.2 9.7 0.00 0.00 0.00 83 1024.7
20260901061103 16 77 3.2 9.7 0.00 0.00 0.00 82 1024.7